Starlink 31737

operational
NORAD ID: 59537 Int'l Des: 2024-074 Owner: SPXS Country: US Constellation: starlink
LEOCIRCULAR

关于 Starlink 31737

正在加载描述...

实时位置

正在加载3D地球...

即将过境

高度历史

Altitude vs Time

uPlot chart will show altitude changes over time

两行轨道根数

1 59537U 24074D 25348.61185821 -.00000968 00000-0 -25657-4 0 9994
2 59537 42.9987 103.9247 0001322 263.6437 96.4265 15.27565268 93006
Epoch: Dec 14, 2025 • Age: 32 hours

当前状态

高度 483.9 km
速度 7.63 km/s
星下点 27.90°N, 72.18°E
发射日期 Apr 18, 2024
运行时间 1.6 years
类型 internet

技术详情

分类 Payload
质量 730.00 kg
干质量 700.00 kg
总质量 730.00 kg
长度 0.30 m
直径 4.10 m
跨度 29.00 m
形状 Box + pan
制造商 SPXS
平台类型 Starlink V2M
阶段状态 In Orbit
所有者/国家 SPXS/US

大型星座

Loading constellations...